| time (UTC) | temp F | wind direction | speed MPH | gust MPH | rain 1hr in | rain 24hr in | rain mn in | humidity % | barometer mb |
| 20260505153022 | 52 | 355 | 6.0 | 0.0 | 0.00 | 0.00 | 0.00 | 50 | 1011.0 |
| 20260505151516 | 52 | 301 | 8.0 | 0.0 | 0.00 | 0.00 | 0.00 | 49 | 1011.1 |
| 20260505124509 | 55 | 321 | 11.0 | 0.0 | 0.00 | 0.00 | 0.00 | 52 | 1011.1 |
| 20260505123007 | 56 | 338 | 10.0 | 0.0 | 0.00 | 0.00 | 0.00 | 51 | 1011.2 |
| 20260505121509 | 56 | 323 | 10.0 | 0.0 | 0.00 | 0.00 | 0.00 | 51 | 1011.4 |
| 20260505120005 | 57 | 277 | 9.0 | 0.0 | 0.00 | 0.00 | 0.00 | 48 | 1011.2 |
| 20260505114504 | 58 | 299 | 8.0 | 0.0 | 0.00 | 0.00 | 0.00 | 46 | 1011.1 |
| 20260505113003 | 58 | 306 | 8.0 | 0.0 | 0.00 | 0.00 | 0.00 | 45 | 1011.1 |
| 20260505111503 | 59 | 325 | 8.0 | 0.0 | 0.00 | 0.00 | 0.00 | 47 | 1011.1 |
| 20260505101559 | 61 | 333 | 11.0 | 0.0 | 0.00 | 0.00 | 0.00 | 42 | 1011.2 |
| 20260505100058 | 63 | 293 | 8.0 | 0.0 | 0.00 | 0.00 | 0.00 | 41 | 1011.0 |
| 20260505094556 | 63 | 291 | 7.0 | 0.0 | 0.00 | 0.00 | 0.00 | 43 | 1010.9 |
| 20260505093055 | 63 | 292 | 7.0 | 0.0 | 0.00 | 0.00 | 0.00 | 41 | 1010.9 |
| 20260505091556 | 62 | 314 | 9.0 | 0.0 | 0.00 | 0.00 | 0.00 | 41 | 1010.9 |
| 20260505090059 | 62 | 288 | 10.0 | 0.0 | 0.00 | 0.00 | 0.00 | 42 | 1011.0 |
| 20260505084553 | 63 | 298 | 8.0 | 0.0 | 0.00 | 0.00 | 0.00 | 43 | 1010.9 |
| 20260505083102 | 63 | 304 | 8.0 | 0.0 | 0.00 | 0.00 | 0.00 | 40 | 1010.7 |
| 20260505081554 | 63 | 272 | 8.0 | 0.0 | 0.00 | 0.00 | 0.00 | 41 | 1010.5 |
| 20260505080047 | 62 | 307 | 8.0 | 0.0 | 0.00 | 0.00 | 0.00 | 44 | 1010.3 |
| 20260505074546 | 62 | 246 | 7.0 | 0.0 | 0.00 | 0.00 | 0.00 | 45 | 1010.2 |
| 20260505073044 | 62 | 316 | 8.0 | 0.0 | 0.00 | 0.00 | 0.00 | 46 | 1010.1 |
| 20260505071542 | 60 | 313 | 7.0 | 0.0 | 0.00 | 0.00 | 0.00 | 48 | 1010.1 |
| 20260505070045 | 59 | 288 | 6.0 | 0.0 | 0.00 | 0.00 | 0.00 | 50 | 1010.1 |
| 20260505064551 | 58 | 355 | 7.0 | 0.0 | 0.00 | 0.00 | 0.00 | 51 | 1009.9 |
| 20260505063031 | 57 | 302 | 7.0 | 0.0 | 0.00 | 0.00 | 0.00 | 56 | 1009.9 |
| 20260505061536 | 56 | 350 | 7.0 | 0.0 | 0.00 | 0.00 | 0.00 | 57 | 1009.8 |
| 20260505060027 | 54 | 313 | 8.0 | 0.0 | 0.00 | 0.00 | 0.00 | 62 | 1009.6 |
| 20260505054518 | 52 | 347 | 7.0 | 0.0 | 0.00 | 0.00 | 0.00 | 66 | 1009.6 |
| 20260505053016 | 50 | 348 | 9.0 | 0.0 | 0.00 | 0.00 | 0.00 | 71 | 1009.8 |
| 20260505051513 | 48 | 298 | 8.0 | 0.0 | 0.00 | 0.00 | 0.00 | 75 | 1009.5 |
| 20260505041506 | 46 | 327 | 9.0 | 0.0 | 0.00 | 0.00 | 0.00 | 83 | 1009.2 |
| 20260505040008 | 46 | 309 | 10.0 | 0.0 | 0.00 | 0.00 | 0.00 | 83 | 1009.2 |
| 20260505034504 | 46 | 311 | 10.0 | 0.0 | 0.00 | 0.00 | 0.00 | 84 | 1009.2 |
| 20260505033001 | 0 | 0.0 | 0.0 | 0.00 | 0.00 | 0.00 | 1009.2 | ||
| 20260505031606 | 0 | 0.0 | 0.0 | 0.00 | 0.00 | 0.00 | 1009.1 | ||
| 20260505030053 | 0 | 0.0 | 0.0 | 0.00 | 0.00 | 0.00 | 1009.2 | ||
| 20260505024549 | 0 | 0.0 | 0.0 | 0.00 | 0.00 | 0.00 | 1009.3 | ||
| 20260505023047 | 0 | 0.0 | 0.0 | 0.00 | 0.00 | 0.00 | 1009.2 | ||
| 20260505021546 | 47 | 284 | 12.0 | 0.0 | 0.00 | 0.00 | 0.00 | 86 | 1009.3 |
| 20260505020042 | 47 | 276 | 13.0 | 0.0 | 0.00 | 0.00 | 0.00 | 86 | 1009.4 |
| 20260505014543 | 47 | 271 | 14.0 | 0.0 | 0.00 | 0.00 | 0.00 | 86 | 1009.6 |
| 20260505013037 | 47 | 261 | 14.0 | 0.0 | 0.00 | 0.00 | 0.00 | 87 | 1009.3 |
| 20260505011536 | 46 | 360 | 14.0 | 0.0 | 0.00 | 0.00 | 0.00 | 87 | 1009.3 |
| 20260505010041 | 47 | 273 | 14.0 | 0.0 | 0.00 | 0.00 | 0.00 | 87 | 1009.4 |
| 20260505004532 | 47 | 261 | 14.0 | 0.0 | 0.00 | 0.00 | 0.00 | 87 | 1009.4 |
| 20260505003031 | 47 | 248 | 13.0 | 0.0 | 0.00 | 0.00 | 0.00 | 87 | 1009.6 |
| 20260505001536 | 47 | 259 | 13.0 | 0.0 | 0.00 | 0.00 | 0.00 | 87 | 1009.6 |
| 20260505000038 | 47 | 360 | 13.0 | 0.0 | 0.00 | 0.00 | 0.00 | 87 | 1009.4 |
| 20260504234526 | 47 | 278 | 14.0 | 0.0 | 0.00 | 0.00 | 0.00 | 87 | 1009.4 |
| 20260504233024 | 47 | 253 | 14.0 | 0.0 | 0.00 | 0.00 | 0.00 | 87 | 1009.6 |
| 20260504231528 | 47 | 266 | 14.0 | 0.0 | 0.00 | 0.00 | 0.00 | 86 | 1009.6 |
| 20260504230019 | 47 | 273 | 14.0 | 0.0 | 0.00 | 0.00 | 0.09 | 86 | 1009.6 |
| 20260504224522 | 47 | 360 | 14.0 | 0.0 | 0.00 | 0.00 | 0.09 | 86 | 1009.8 |
| 20260504223016 | 47 | 259 | 16.0 | 0.0 | 0.00 | 0.00 | 0.09 | 85 | 1009.7 |
| 20260504221515 | 47 | 263 | 15.0 | 0.0 | 0.00 | 0.00 | 0.09 | 86 | 1009.9 |
| 20260504220018 | 47 | 268 | 15.0 | 0.0 | 0.00 | 0.00 | 0.09 | 85 | 1010.0 |
| 20260504214511 | 47 | 265 | 14.0 | 0.0 | 0.00 | 0.00 | 0.09 | 86 | 1010.0 |
| 20260504213011 | 48 | 258 | 15.0 | 0.0 | 0.00 | 0.00 | 0.09 | 85 | 1010.1 |
| 20260504211512 | 48 | 288 | 14.0 | 0.0 | 0.00 | 0.00 | 0.09 | 84 | 1010.1 |
| 20260504210007 | 48 | 360 | 14.0 | 0.0 | 0.00 | 0.00 | 0.09 | 83 | 1010.0 |
| 20260504204504 | 48 | 273 | 14.0 | 0.0 | 0.00 | 0.00 | 0.09 | 83 | 1010.0 |
| 20260504203007 | 48 | 265 | 14.0 | 0.0 | 0.00 | 0.00 | 0.09 | 83 | 1009.9 |
| 20260504201502 | 48 | 360 | 14.0 | 0.0 | 0.00 | 0.00 | 0.09 | 82 | 1009.8 |
| 20260504194609 | 48 | 253 | 13.0 | 0.0 | 0.00 | 0.00 | 0.09 | 82 | 1009.6 |
| 20260504193055 | 49 | 271 | 12.0 | 0.0 | 0.00 | 0.00 | 0.09 | 82 | 1009.6 |
| 20260504191554 | 49 | 234 | 13.0 | 0.0 | 0.00 | 0.00 | 0.09 | 81 | 1009.6 |
| 20260504190117 | 50 | 254 | 12.0 | 0.0 | 0.00 | 0.00 | 0.09 | 81 | 1009.3 |
| 20260504184556 | 50 | 277 | 10.0 | 0.0 | 0.00 | 0.00 | 0.09 | 81 | 1009.3 |
| 20260504183051 | 50 | 263 | 11.0 | 0.0 | 0.00 | 0.00 | 0.09 | 80 | 1009.2 |
| 20260504181556 | 51 | 263 | 9.0 | 0.0 | 0.00 | 0.00 | 0.09 | 80 | 1009.3 |
| 20260504180137 | 52 | 279 | 9.0 | 0.0 | 0.00 | 0.00 | 0.09 | 79 | 1009.4 |
| 20260504174550 | 53 | 360 | 9.0 | 0.0 | 0.00 | 0.00 | 0.09 | 78 | 1009.2 |
| 20260504173059 | 53 | 263 | 7.0 | 0.0 | 0.00 | 0.00 | 0.09 | 76 | 1009.2 |
| 20260504171548 | 54 | 278 | 6.0 | 0.0 | 0.00 | 0.00 | 0.09 | 73 | 1009.3 |